User: anonymous   Login
Location: Newark
(39.0622°N, 106.5590°E)
Time: 13:47:15
(UTC+00:00)
Language:

Transit 4A - Orbit

View from above orbital plane
View from above orbital plane
View from above satellite
View from above satellite

Ground track
Ground track

The orbit data is extracted from the following two-line orbital elements,

1   116U 61015A   20016.84012822 -.00000068  00000-0  70326-5 0  9995
2   116  66.8078 221.2870 0069798 118.1617 242.6536 13.91764415971074
Epoch (UTC): 16 January 2020 20:09:47
Eccentricity: 0.0069798
inclination: 66.8078°
perigee height: 871 km
apogee height: 973 km
right ascension of ascending node: 221.2870°
argument of perigee: 118.1617°
revolutions per day: 13.91764415
mean anomaly at epoch: 242.6536°
orbit number at epoch: 97107

The dashed part of the orbit path shows where the satellite is in the earth's shadow,  

DLR